{"data":{"norad_id":59221,"intl_designator":"2024-046W","name":"STARLINK-31516","alt_names":[],"object_type":"PAYLOAD","status":"ACTIVE","operator":null,"country":"US","launch_date":"2024-03-11","launch_site_code":"AFWTR","launch_vehicle":null,"mission":null,"orbit_class":"UNKNOWN","rcs_meters":null,"size_class":null,"mass_kg":null,"dimensions":null,"purposes":["comms"],"wikipedia_slug":null,"has_3d_model":false,"image_url":null,"decayed_at":null,"tle_current":{"epoch":"2026-05-25T00:45:10.634112Z","epoch_age_seconds":75843,"freshness":"FRESH","line1":"1 59221U 24046W   26145.03137308  .00000757  00000+0  33557-4 0  9993","line2":"2 59221  53.1599 159.6171 0001259  87.1297 272.9849 15.34386120124746","mean_motion":15.3438612,"eccentricity":0.0001259,"inclination_deg":53.1599,"raan_deg":159.6171,"arg_perigee_deg":87.1297,"mean_anomaly_deg":272.9849,"bstar":3.3557e-5,"rev_number":12474,"period_min":93.848607024678,"perigee_km":461.88322782297,"apogee_km":463.60576178336,"semimajor_km":6840.8814948032,"source":"CELESTRAK","updated_at":"2026-05-25T13:38:18.868449Z"}}}